Weather History for Galeao, Brazil

Change the Weather History Date:

Wednesday, March 27, 2013

  Actual Average Record
Temperature  
Mean Temperature 76 °F -  
Max Temperature 79 °F 83 °F 95 °F (2011)
Min Temperature 73 °F 70 °F 68 °F (1997)
Cooling Degree Days 11    
Growing Degree Days 26 (Base 50)    
Moisture  
Dew Point 71 °F    
Average Humidity 89    
Maximum Humidity 94    
Minimum Humidity 72    
Precipitation  
Precipitation 0.24 in - - ()
Sea Level Pressure  
Sea Level Pressure 29.87 in    
Wind  
Wind Speed 5 mph ()    
Max Wind Speed 13 mph    
Max Gust Speed -    
Visibility 4.6 miles    
Events Rain    
Averages and records for this station are not official NWS values.
T = Trace of Precipitation, MM = Missing Value Source: Averaged Metar Reports

Daily Weather History Graph

Daily Weather History Graph

Search for Another Location

Airport:

Trip Planner

Search our weather history database for the weather conditions in past years. The results will help you decide how hot, cold, wet, or windy it might be!

Date:

Astronomy

Mar. 27, 2013 Rise Set
Actual Time 5:59 AM BRT 5:56 PM BRT
Civil Twilight 5:36 AM BRT 6:19 PM BRT
Nautical Twilight 5:10 AM BRT 6:45 PM BRT
Astronomical Twilight 4:44 AM BRT 7:11 PM BRT
Moon 6:03 PM BRT (3/27) 6:01 AM BRT (3/27)
Length of Visible Light 12h 42m
Length of Day
11h 57m
Full, 100% of the Moon is Illuminated
Mar 27
Full
Apr 3
Last Quarter
Apr 10
New
Apr 18
First Quarter
Apr 25
Full

Hourly Weather History & Observations

Time (BRT) Temp. Dew Point Humidity Pressure Visibility Wind Dir Wind Speed Gust Speed Precip Events Conditions
12:00 AM 73 °F 72 °F 94%  in 2 mi West 4.6 mph - - Rain Light Rain
12:00 AM 73.4 °F 71.6 °F 94% 29.92 in 2.5 mi West 4.6 mph - N/A Rain Light Rain
1:00 AM 73.4 °F 71.6 °F 94% 29.89 in 2.5 mi WSW 4.6 mph - N/A Rain Light Rain
2:00 AM 73.4 °F 71.6 °F 94% 29.86 in 2.5 mi WSW 4.6 mph - N/A Rain Light Rain
3:00 AM 73 °F 71 °F 92% 29.86 in 3 mi West 4.6 mph - - Rain Light Rain
3:00 AM 73.4 °F 71.6 °F 94% 29.86 in 3.1 mi West 4.6 mph - N/A Rain Light Rain
4:00 AM 73.4 °F 71.6 °F 94% 29.83 in 3.1 mi West 4.6 mph - N/A   Overcast
5:00 AM 73.4 °F 71.6 °F 94% 29.83 in 3.7 mi WSW 3.5 mph - N/A   Overcast
6:00 AM 73 °F 71 °F 92% 29.86 in 4 mi West 2.3 mph - -   Mist
6:00 AM 73.4 °F 71.6 °F 94% 29.86 in 3.7 mi West 2.3 mph - N/A   Overcast
7:00 AM 73.4 °F 71.6 °F 94% 29.86 in 3.7 mi WSW 2.3 mph - N/A   Overcast
8:00 AM 75.2 °F 71.6 °F 89% 29.89 in 4.3 mi West 2.3 mph - N/A   Overcast
9:00 AM 76 °F 72 °F 84% 29.90 in 5 mi West 3.5 mph - -   Mist
9:00 AM 77.0 °F 71.6 °F 83% 29.89 in 5.0 mi West 3.5 mph - N/A   Mostly Cloudy
10:00 AM 78.8 °F 71.6 °F 78% 29.89 in 5.0 mi West 3.5 mph - N/A   Mostly Cloudy
11:00 AM 78.8 °F 71.6 °F 78% 29.89 in 5.0 mi North 3.5 mph - N/A Rain Light Rain
12:00 PM 79 °F 72 °F 72% 29.86 in 4 mi NNE 3.5 mph - - Rain Light Rain
12:00 PM 78.8 °F 71.6 °F 78% 29.86 in 4.3 mi NNE 3.5 mph - N/A Rain Light Rain
1:00 PM 77.0 °F 71.6 °F 83% 29.83 in 4.3 mi ESE 4.6 mph - N/A   Overcast
1:30 PM 77.0 °F 71.6 °F 83% 29.83 in 3.1 mi SW 4.6 mph - N/A Rain Light Rain
2:00 PM 75.2 °F 71.6 °F 89% 29.80 in 3.7 mi SW 12.7 mph - N/A Rain Light Rain
2:15 PM 73.4 °F 71.6 °F 94% 29.83 in 1.2 mi SW 12.7 mph - N/A Rain Rain
3:00 PM 74 °F 72 °F 91% 29.83 in 5 mi SW 9.2 mph - -   Overcast
3:00 PM 75.2 °F 71.6 °F 89% 29.83 in 5.0 mi SW 9.2 mph - N/A   Overcast
4:00 PM 75.2 °F 71.6 °F 89% 29.83 in 6.2 mi WSW 6.9 mph - N/A Rain Light Rain
5:00 PM 75.2 °F 71.6 °F 89% 29.86 in 5.6 mi WNW 5.8 mph - N/A Rain Light Rain
6:00 PM 74 °F 71 °F 88% 29.88 in 7 mi NNE 8.1 mph - - Rain Light Rain
6:00 PM 73.4 °F 69.8 °F 88% 29.86 in 6.2 mi WNW 8.1 mph - N/A   Overcast
7:00 PM 73.4 °F 71.6 °F 94% 29.89 in 6.2 mi West 5.8 mph - N/A   Mostly Cloudy
8:00 PM 73.4 °F 71.6 °F 94% 29.89 in 6.2 mi West 8.1 mph - N/A   Mostly Cloudy
9:00 PM 74 °F 70 °F 85% 29.92 in 11 mi West 8.1 mph - -   Mist
9:00 PM 73.4 °F 69.8 °F 88% 29.92 in 6.2 mi West 8.1 mph - N/A   Scattered Clouds
10:00 PM 73.4 °F 69.8 °F 88% 29.92 in 6.2 mi West 5.8 mph - N/A   Scattered Clouds
11:00 PM 73.4 °F 69.8 °F 88% 29.89 in 6.2 mi West 9.2 mph - N/A   Mostly Cloudy